User: anonymous   Login
Location: Bishop�s Knoyle
(51.0728°N, 2.1714°W)
Time: 05:56:19
(UTC+00:00)
Language:

Cosmos 1782 Rocket - Orbit

View from above orbital plane
View from above orbital plane
View from above satellite
View from above satellite

Ground track
Ground track

The orbit data is extracted from the following two-line orbital elements,

1 16987U 86074B   21216.79678183  .00000058  00000-0  42284-5 0  9995
2 16987  82.5188 336.5059 0017392 331.3480 141.4068 14.83120213882210
Epoch (UTC): 04 August 2021 19:07:21
Eccentricity: 0.0017392
inclination: 82.5188°
perigee height: 607 km
apogee height: 631 km
right ascension of ascending node: 336.5059°
argument of perigee: 331.3480°
revolutions per day: 14.83120213
mean anomaly at epoch: 141.4068°
orbit number at epoch: 88221

The dashed part of the orbit path shows where the satellite is in the earth's shadow,  

DLR